THURAYA-4 (62483 NORAD) Tracking and Keplerian Element Data

This shows tracking and keplerian element data for the satellite.

Feedback or suggestion? Click here.




ElementValue
Catalog62483
NameTHURAYA-4
Epoch Orbit36
Epoch Day31.26288702
Epoch Year2025
RAAN317.3268
Inclination16.4825
Eccentricity0.7356548
Argument of Perigee184.3363
Mean Anonmoly161.0669
Mean Motion1.16876655
Decay Rate-2.97E-06
L11 62483U 25001A 25031.26288702 -.00000297 00000+0 00000+0 0 9994
L22 62483 16.4825 317.3268 7356548 184.3363 161.0669 1.16876655 360



Live tracking and technical data element details for THURAYA-4 (NORAD 62483). THURAYA-4 can be tracked NOW for your location showing map with azimuth and elevation plus other details from your city location.







IsCatalogInMostPopularTable: catalog: 62483, numindb: 12
Update: records affected: 1



GetName: 62483 THURAYA-4

Hit Count: updated at: Mon, 19 May 2025 01:18:32 GMT